ruseller.com alexa rank chart, ruseller.com alexa rank daily changes

ruseller.com alexa rank chart, ruseller.com alexa rank daily changes

ruseller.com
Actual rank:
39 678

RANK HISTORY

Date Rank Diff
2017/09/22 39 678 -110
2017/09/20 39 788 -428
2017/09/19 40 216 +146
2017/09/18 40 070 -156
2017/09/17 40 226 +310
2017/09/16 39 916 +267
2017/09/15 39 649 +108
2017/09/14 39 541 -8
2017/09/13 39 549 +188
2017/09/12 39 361 -52
2017/09/11 39 413 +234
2017/09/10 39 179 -201
2017/09/09 39 380 +105
2017/09/08 39 275 +81
2017/09/07 39 194 +206
2017/09/06 38 988 +212
2017/09/05 38 776 -33
2017/09/04 38 809 -77
2017/09/03 38 886 -573
2017/09/02 39 459 -415
2017/09/01 39 874 +122
2017/08/31 39 752 -22
2017/08/30 39 774 +133
2017/08/29 39 641 +392
2017/08/28 39 249 +131
2017/08/27 39 118 +318
2017/08/26 38 800 -49
2017/08/25 38 849 +135
2017/08/24 38 714 -104
2017/08/23 38 818 -144
2017/08/22 38 962 +81
2017/08/21 38 881 +375
2017/08/20 38 506 +382
2017/08/19 38 124 -106
2017/08/18 38 230 +301
2017/08/17 37 929 +39
2017/08/16 37 890 +80
2017/08/15 37 810 +244
2017/08/14 37 566 +155
2017/08/13 37 411 +108
2017/08/12 37 303 +232
2017/08/11 37 071 -104
2017/08/10 37 175 +1 035
2017/08/09 36 140 +117
2017/08/08 36 023 +75
2017/08/07 35 948 +139
2017/08/06 35 809 -64
2017/08/05 35 873 +150
2017/08/04 35 723 +87
2017/08/03 35 636 -242
2017/08/02 35 878 +88
2017/08/01 35 790 -72
2017/07/31 35 862 +250
2017/07/30 35 612 +16
2017/07/29 35 596 -199
2017/07/28 35 795 -34
2017/07/27 35 829 -170
2017/07/26 35 999 +116
2017/07/25 35 883 -7
2017/07/24 35 890

WIDGET FOR YOUR SITE

DOMAINS WITH THE NEAREST RANK

Domain Rank
vodafone.hu 39 673
pixelfilmstudios.com 39 674
hostelbookers.com 39 675
chinahrt.com 39 676
entertainmentdaily.co.uk 39 677
ruseller.com 39 678
ontraport.net 39 679
avvenire.it 39 680
gayfuckporn.com 39 681
macaodaily.com 39 682
telkomuniversity.ac.id 39 683

DOMAINS WITH THE NEAREST RANK BY TLD .com

Domain Rank
heromotocorp.com 39 666
xiguaji.com 39 670
pixelfilmstudios.com 39 674
hostelbookers.com 39 675
chinahrt.com 39 676
ruseller.com 39 678
gayfuckporn.com 39 681
macaodaily.com 39 682
qadinla.com 39 684
humankinetics.com 39 685
masreat.com 39 687